EDT,Max TemperatureF,Mean TemperatureF,Min TemperatureF,Max Dew PointF,MeanDew PointF,Min DewpointF,Max Humidity, Mean Humidity, Min Humidity, Max Sea Level PressureIn, Mean Sea Level PressureIn, Min Sea Level PressureIn, Max VisibilityMiles, Mean VisibilityMiles, Min VisibilityMiles, Max Wind SpeedMPH, Mean Wind SpeedMPH, Max Gust SpeedMPH,PrecipitationIn, CloudCover, Events, WindDirDegrees
2012-10-1,64,52,39,52,46,37,100,80,49,29.95,29.88,29.83,10,10,5,10,4,16,0.00,0,,228
2012-10-2,55,50,46,54,50,46,100,97,88,29.98,29.90,29.85,10,9,0,6,2,,0.00,5,,166
2012-10-3,48,46,44,48,46,43,100,98,93,30.03,30.01,29.98,10,1,0,6,3,,0.00,7,,94
2012-10-4,60,57,55,57,56,55,100,94,88,29.99,29.95,29.92,10,10,10,6,2,,0.00,8,,273
2012-10-5,48,44,39,36,32,28,66,60,54,29.89,29.85,29.81,10,10,10,20,12,26,0.00,8,,252
2012-10-6,39,36,33,39,34,28,100,87,65,30.08,29.85,29.75,10,9,5,18,9,26,0.20,8,,257
2012-10-7,48,39,30,37,31,25,100,80,43,30.08,30.03,29.99,10,10,4,13,4,16,0.03,5,,228
2012-10-8,55,45,35,39,34,28,100,67,41,30.00,29.96,29.88,10,10,10,20,8,26,0.03,5,,176
2012-10-9,51,46,41,50,43,36,100,87,62,29.89,29.75,29.65,10,10,4,20,9,28,0.65,8,,187
2012-10-10,41,36,32,39,35,30,100,93,87,29.99,29.84,29.70,10,10,9,20,11,29,0.05,6,,263
2012-10-11,42,38,33,41,34,30,100,92,70,30.14,29.95,29.82,10,9,1,22,8,36,0.46,7,,250
2012-10-12,44,36,28,37,32,28,100,82,57,30.40,30.32,30.15,10,10,1,12,4,17,0.00,3,,229
2012-10-13,44,40,35,45,38,32,100,90,70,30.30,30.03,29.76,10,8,2,16,8,23,0.23,7,,141
2012-10-14,48,44,41,48,45,39,100,98,93,29.77,29.59,29.35,10,5,0,21,6,28,1.29,8,,41
2012-10-15,44,42,39,41,38,34,100,86,70,29.89,29.66,29.36,10,10,5,25,16,33,0.31,8,,315
2012-10-16,46,38,30,46,39,28,100,93,76,29.91,29.81,29.65,10,10,10,17,5,25,0.09,5,,136
2012-10-17,64,55,46,54,49,45,100,86,64,29.65,29.53,29.45,10,10,9,17,12,22,0.01,4,,112
2012-10-18,55,50,44,55,50,43,100,92,77,29.63,29.44,29.34,10,10,7,28,14,34,0.30,7,,123
2012-10-19,53,48,42,50,46,43,100,94,82,29.66,29.63,29.60,10,10,3,18,9,24,0.16,6,Thunderstorm,97
2012-10-20,57,50,42,46,43,39,100,84,51,29.80,29.68,29.60,10,10,10,13,6,16,0.06,4,,332
2012-10-21,59,48,37,46,42,37,100,82,51,30.02,29.94,29.80,10,8,0,14,5,25,0.00,2,,235
2012-10-22,62,52,42,48,46,43,100,84,55,30.05,30.03,30.01,10,10,3,7,3,,0.00,2,,98
2012-10-23,55,52,48,46,45,43,93,79,67,30.07,30.04,30.01,10,10,8,28,12,36,0.00,8,,87
2012-10-24,53,50,48,54,50,45,100,96,87,30.05,29.97,29.89,10,4,0,20,15,24,0.00,8,,116
2012-10-25,73,60,48,63,58,48,100,85,57,29.88,29.70,29.57,10,6,0,21,13,29,0.01,6,,142
2012-10-26,48,42,35,45,35,28,100,78,46,30.25,30.08,29.69,10,10,5,18,12,28,0.00,4,Thunderstorm,268
2012-10-27,44,36,28,36,28,23,100,75,43,30.30,30.27,30.23,10,10,8,12,4,,0.00,6,,278
2012-10-28,44,36,28,36,30,25,100,76,46,30.35,30.31,30.28,10,10,10,18,6,22,0.00,2,,332
2012-10-29,42,36,30,27,22,16,80,57,36,30.29,30.23,30.06,10,10,10,20,11,29,0.00,0,,347
2012-10-30,35,34,33,34,30,21,100,86,56,30.05,29.81,29.68,10,8,1,23,17,29,0.00,7,,343
2012-10-31,39,36,32,37,34,30,100,91,81,29.67,29.62,29.58,10,9,5,23,15,31,0.00,8,,333